Regional Weather Roundup
Issued by NWS

Home | Current Version | Previous Version | Graphics & Text | Print | Product List | Glossary On
Versions: 1 2 3 4 5 6 7 8 9 10 11 12 13 14 15 16 17 18 19 20 21 22 23 24 25 26 27 28 29 30 31 32 33 34 35 36 37 38 39 40 41 42 43 44 45 46 47 48 49 50
000
ASUS44 KMEG 282000
RWRTN
TENNESSEE HOURLY STATE WEATHER ROUNDUP
NATIONAL WEATHER SERVICE MEMPHIS TN
300 PM CDT SAT MAR 28 2015

TNZ002-004-019-021-049-052-054-088>092-282100-
WEST TENNESSEE

CITY           SKY/WX    TMP DP  RH WIND       PRES   REMARKS
MEMPHIS INTL   CLOUDY    41  26  55 CALM      30.29F
NWS MEMPHIS      N/A     43 N/A N/A MISG        N/A
JACKSON        CLOUDY    45  20  36 CALM      30.28F
DYERSBURG      PTSUNNY   45  18  33 N3        30.30F
PARIS          SUNNY     43  18  36 N6        30.27F
LEXINGTON      SUNNY     46  10  23 VRB5      30.25F
SAVANNAH       SUNNY     45  18  33 N5        30.28S
$$

TNZ008-025-027-028-033-062-065-066-282100-
NORTH MIDDLE TENNESSEE

CITY           SKY/WX    TMP DP  RH WIND       PRES   REMARKS
NASHVILLE      MOSUNNY   48  12  23 NW14      30.26F
CLARKSVILLE    SUNNY     43  15  32 NE5       30.28F
CROSSVILLE     SUNNY     41   8  25 NW9G24    30.17S
$$

TNZ061-075-076-078-094-096-097-282100-
SOUTH MIDDLE TENNESSEE

CITY           SKY/WX    TMP DP  RH WIND       PRES   REMARKS
FAYETTEVILLE   SUNNY     43  14  31 N10       30.22F
TULLAHOMA      SUNNY     45   9  23 VRB7      30.23S
WINCHESTER     SUNNY     45  18  33 N14       30.22F
COLUMBIA       SUNNY     45  16  31 CALM      30.24F
SHELBYVILLE    SUNNY     46  18  31 N9        30.25S
$$

TNZ017-018-042-046-047-282100-
NORTHEAST TENNESSEE

CITY           SKY/WX    TMP DP  RH WIND       PRES   REMARKS
TRI CITIES     MOSUNNY   40  14  34 NW13G18   30.13S WCI  32
ELIZABETHTON   PTCLDY    37  12  35 W12       30.12S WCI  30
$$

TNZ012-013-036-069-073-074-282100-
CENTRAL EAST TENNESSEE

CITY           SKY/WX    TMP DP  RH WIND       PRES   REMARKS
KNOXVILLE      MOSUNNY   45  13  27 NW6       30.17F
OAK RIDGE      SUNNY     48  11  22 N12       30.18F
$$

TNZ083-085-099-282100-
SOUTHEAST TENNESSEE

CITY           SKY/WX    TMP DP  RH WIND       PRES   REMARKS
CHATTANOOGA    MOSUNNY   51  11  20 N14G25    30.18F
$$

SKY/WX REPORTED AS FAIR MEANS FEW OR NO CLOUDS BELOW
12 THOUSAND FEET.




USA.gov is the U.S. government's official web portal to all federal, state and local government web resources and services.